Location: Piotrkow Trybunalski
(51.4000°N, 19.6830°E)
Time: 00:13:39
(UTC+01:00)

A-11 Canister half - Pass Details

Date: 16 December 2023
Orbit: 1512 x 1687 km, 47.2° (Epoch: 23 February)

Event Time Altitude Azimuth Distance (km) Brightness Sun altitude
Exits shadow 03:11:15 24° 166° (SSE) 2,961 10.4 -40.4°
Drops below altitude 10° 03:15:01 10° 152° (SSE) 3,923 11.2 -39.9°
Sets 03:18:28 0° 145° (SE) 4,921 11.9 -39.3°
